Tracking 19176 objects as of 27-May-2018
HD Live streaming from Space Station
objects crossing your sky now

FENGYUN 1C DEB

Track FENGYUN 1C DEB now!
10-day predictions


NORAD ID: 29758
Int'l Code: 1999-025AY
Perigee: 823.3 km
Apogee: 864.6 km
Inclination: 98.9 °
Period: 101.6 minutes
Semi major axis: 7214 km
RCS: 0.0129 m2 (small)
Launch date: May 10, 1999
Source: People's Republic of China (PRC)
Launch site: Taiyaun Space Center, China (TSC)

Note: This is SATELLITE DEBRIS
aabbcc
Your satellite tracking list
Your tracking list is empty




NASA's NSSDC Master Catalog

Two Line Element Set (TLE):
1 29758U 99025AY  18146.69582730  .00000655  00000-0  34975-3 0  9993
2 29758  98.9353 204.5020 0028626 332.3808 152.8838 14.16629100584983
Source of the keplerian elements: AFSPC